TimeCDT,TemperatureF,Dew PointF,Humidity,Sea Level PressureIn,VisibilityMPH,Wind Direction,Wind SpeedMPH,Gust SpeedMPH,PrecipitationIn,Events,Conditions,WindDirDegrees,DateUTC
12:08 AM,82.4,75.2,79,30.04,10.0,ESE,20.7,26.5,N/A,,Overcast,120,2013-05-25 05:08:00
12:42 AM,82.4,73.4,74,30.06,10.0,SE,20.7,25.3,N/A,,Overcast,130,2013-05-25 05:42:00
12:51 AM,82.0,73.9,76,30.06,10.0,SE,19.6,-,N/A,,Mostly Cloudy,130,2013-05-25 05:51:00
1:51 AM,82.0,73.9,76,30.05,10.0,SE,16.1,25.3,N/A,,Mostly Cloudy,130,2013-05-25 06:51:00
2:00 AM,82.4,73.4,74,30.05,10.0,SE,19.6,-,N/A,,Mostly Cloudy,140,2013-05-25 07:00:00
2:30 AM,82.4,73.4,74,30.05,10.0,SE,17.3,-,N/A,,Mostly Cloudy,140,2013-05-25 07:30:00
2:51 AM,81.0,75.0,82,30.04,10.0,SSE,17.3,-,N/A,,Overcast,150,2013-05-25 07:51:00
3:32 AM,80.6,73.4,79,30.02,10.0,SE,18.4,26.5,N/A,,Mostly Cloudy,140,2013-05-25 08:32:00
3:40 AM,80.6,75.2,84,30.02,10.0,SSE,18.4,-,N/A,Thunderstorm,Thunderstorm,150,2013-05-25 08:40:00
3:51 AM,81.0,73.9,79,30.01,10.0,SE,18.4,-,N/A,Thunderstorm,Thunderstorm,140,2013-05-25 08:51:00
4:11 AM,80.6,73.4,79,30.01,10.0,SE,17.3,23.0,N/A,,Mostly Cloudy,140,2013-05-25 09:11:00
4:51 AM,80.1,73.9,81,30.01,10.0,SE,18.4,-,N/A,,Mostly Cloudy,140,2013-05-25 09:51:00
5:51 AM,80.1,73.9,81,30.02,10.0,SE,17.3,-,N/A,,Mostly Cloudy,140,2013-05-25 10:51:00
5:58 AM,80.6,73.4,79,30.02,10.0,SE,18.4,-,N/A,,Mostly Cloudy,140,2013-05-25 10:58:00
6:19 AM,80.6,73.4,79,30.02,10.0,SE,18.4,-,N/A,,Mostly Cloudy,140,2013-05-25 11:19:00
6:51 AM,80.1,73.9,81,30.02,9.0,SE,15.0,-,N/A,,Mostly Cloudy,140,2013-05-25 11:51:00
7:51 AM,81.0,73.9,79,30.04,9.0,SSE,19.6,-,N/A,,Mostly Cloudy,150,2013-05-25 12:51:00
8:22 AM,82.4,73.4,74,30.06,10.0,SSE,20.7,-,N/A,,Mostly Cloudy,150,2013-05-25 13:22:00
8:51 AM,82.9,73.0,72,30.06,10.0,SSE,26.5,29.9,N/A,,Mostly Cloudy,150,2013-05-25 13:51:00
9:41 AM,80.6,71.6,74,30.08,6.0,SSW,24.2,40.3,0.00,Rain-Thunderstorm,Light Thunderstorms and Rain,200,2013-05-25 14:41:00
9:45 AM,75.2,69.8,83,30.08,1.2,SSW,27.6,40.3,0.01,Rain-Thunderstorm,Heavy Thunderstorms and Rain,200,2013-05-25 14:45:00
9:47 AM,75.2,69.8,83,30.09,1.0,South,18.4,34.5,0.04,Rain-Thunderstorm,Heavy Thunderstorms and Rain,190,2013-05-25 14:47:00
9:49 AM,73.4,69.8,88,30.09,0.2,SSE,9.2,34.5,0.12,Fog-Rain-Thunderstorm,Heavy Thunderstorms and Rain,160,2013-05-25 14:49:00
9:51 AM,73.9,70.0,87,30.08,0.5,SE,11.5,34.5,0.24,Fog-Rain-Thunderstorm,Heavy Thunderstorms and Rain,130,2013-05-25 14:51:00
9:57 AM,75.2,69.8,83,30.07,1.5,SE,17.3,20.7,0.11,Rain-Thunderstorm,Thunderstorms and Rain,140,2013-05-25 14:57:00
10:06 AM,75.2,69.8,83,30.06,2.0,SE,18.4,-,0.17,Rain-Thunderstorm,Thunderstorms and Rain,130,2013-05-25 15:06:00
10:12 AM,75.2,69.8,83,30.06,4.0,SE,19.6,-,0.19,Rain-Thunderstorm,Light Thunderstorms and Rain,140,2013-05-25 15:12:00
10:51 AM,78.1,71.1,79,30.09,10.0,SE,9.2,-,0.21,Thunderstorm,Thunderstorm,140,2013-05-25 15:51:00
11:07 AM,78.8,71.6,78,30.09,2.0,ESE,8.1,-,0.00,Rain,Light Rain,110,2013-05-25 16:07:00
11:09 AM,77.0,71.6,83,30.09,0.5,East,8.1,-,0.01,Rain,Heavy Rain,90,2013-05-25 16:09:00
11:12 AM,78.8,73.4,83,30.08,4.0,East,10.4,-,0.09,Rain,Rain,90,2013-05-25 16:12:00
11:16 AM,80.6,75.2,84,30.09,7.0,SSE,13.8,-,0.10,Rain,Light Rain,150,2013-05-25 16:16:00
11:27 AM,80.6,75.2,84,30.08,10.0,SE,19.6,-,0.10,Thunderstorm,Thunderstorm,130,2013-05-25 16:27:00
11:34 AM,82.4,75.2,79,30.08,9.0,SE,18.4,-,0.10,Thunderstorm,Thunderstorm,130,2013-05-25 16:34:00
11:42 AM,82.4,75.2,79,30.09,9.0,SE,20.7,26.5,0.10,Thunderstorm,Thunderstorm,140,2013-05-25 16:42:00
11:46 AM,82.4,75.2,79,30.09,3.0,SE,19.6,26.5,0.10,Rain-Thunderstorm,Thunderstorms and Rain,130,2013-05-25 16:46:00
11:51 AM,81.0,75.0,82,30.08,3.0,SE,18.4,-,0.11,Rain-Thunderstorm,Thunderstorms and Rain,140,2013-05-25 16:51:00
12:03 PM,82.4,75.2,79,30.08,7.0,SE,17.3,24.2,0.02,Rain-Thunderstorm,Light Thunderstorms and Rain,130,2013-05-25 17:03:00
12:16 PM,80.6,75.2,84,30.08,2.0,SE,18.4,-,0.05,Rain-Thunderstorm,Thunderstorms and Rain,140,2013-05-25 17:16:00
12:24 PM,80.6,75.2,84,30.08,5.0,SE,16.1,-,0.11,Rain-Thunderstorm,Thunderstorms and Rain,130,2013-05-25 17:24:00
12:51 PM,81.0,75.0,82,30.08,10.0,SE,18.4,-,0.13,Rain-Thunderstorm,Light Thunderstorms and Rain,140,2013-05-25 17:51:00
1:13 PM,82.4,75.2,79,30.08,10.0,SE,19.6,-,0.00,Rain,Light Rain,140,2013-05-25 18:13:00
1:32 PM,82.4,75.2,79,30.08,10.0,SE,18.4,-,0.00,,Overcast,140,2013-05-25 18:32:00
1:51 PM,84.9,77.0,77,30.07,10.0,ESE,16.1,-,0.00,,Overcast,120,2013-05-25 18:51:00
1:59 PM,84.2,77.0,79,30.07,10.0,SE,19.6,-,N/A,Thunderstorm,Thunderstorm,130,2013-05-25 18:59:00
2:30 PM,84.2,75.2,74,30.06,10.0,SE,21.9,-,0.00,Rain,Light Rain,140,2013-05-25 19:30:00
2:51 PM,82.9,75.9,79,30.06,10.0,SE,19.6,-,0.00,,Overcast,140,2013-05-25 19:51:00
3:07 PM,84.2,75.2,74,30.06,10.0,SE,20.7,-,N/A,,Mostly Cloudy,130,2013-05-25 20:07:00
3:51 PM,82.9,75.0,77,30.05,10.0,SE,18.4,-,0.00,Rain,Light Rain,140,2013-05-25 20:51:00
4:51 PM,82.0,75.0,79,30.02,10.0,SE,18.4,-,0.00,,Mostly Cloudy,130,2013-05-25 21:51:00
5:51 PM,84.0,75.0,74,30.01,10.0,SE,18.4,-,N/A,,Mostly Cloudy,130,2013-05-25 22:51:00
6:51 PM,81.0,73.9,79,30.02,10.0,SE,18.4,-,N/A,,Mostly Cloudy,130,2013-05-25 23:51:00
7:51 PM,80.1,73.9,81,30.00,10.0,SE,15.0,-,N/A,,Mostly Cloudy,130,2013-05-26 00:51:00
8:51 PM,80.1,73.9,81,30.02,10.0,ESE,11.5,-,N/A,,Mostly Cloudy,120,2013-05-26 01:51:00
9:34 PM,78.8,73.4,83,30.03,10.0,ESE,12.7,-,N/A,,Scattered Clouds,120,2013-05-26 02:34:00
9:51 PM,79.0,73.0,82,30.04,10.0,SE,13.8,-,N/A,,Scattered Clouds,130,2013-05-26 02:51:00
10:08 PM,78.8,73.4,83,30.04,10.0,SE,13.8,-,N/A,,Mostly Cloudy,130,2013-05-26 03:08:00
10:51 PM,79.0,73.9,84,30.04,10.0,SE,15.0,-,N/A,,Scattered Clouds,130,2013-05-26 03:51:00
11:32 PM,78.8,73.4,83,30.04,10.0,SE,18.4,-,N/A,,Mostly Cloudy,130,2013-05-26 04:32:00
11:51 PM,79.0,73.9,84,30.04,9.0,SE,16.1,-,N/A,,Mostly Cloudy,140,2013-05-26 04:51:00